Clines Corner, NM

5:49 PM MDT on April 23, 2018 (GMT -0600)
Clines Corner

Weather History for KCQC - August, 2013

Change the Weather History Date:

Tuesday, August 20, 2013

  Actual Average (KSAF) Record (KSAF)
Temperature  
Mean Temperature 68 °F -  
Max Temperature 81 °F 82 °F 95 °F (2007)
Min Temperature 55 °F 50 °F 50 °F (1980)
Cooling Degree Days 3    
Growing Degree Days 18 (Base 50)    
Moisture  
Dew Point 53 °F    
Average Humidity 64    
Maximum Humidity 89    
Minimum Humidity 31    
Precipitation  
Precipitation 0.19 in - - ()
Sea Level Pressure  
Sea Level Pressure 30.02 in    
Wind  
Wind Speed 10 mph (WSW)    
Max Wind Speed 20 mph    
Max Gust Speed 25 mph    
Visibility 10 miles    
Events Rain    
Averages and records for this station are not official NWS values.
T = Trace of Precipitation, MM = Missing Value Source: NWS Daily Summary

Daily Weather History Graph

Daily Weather History Graph

Search for Another Location

Airport or City:

Astronomy

Aug. 20, 2013 Rise Set
Actual Time 6:26 AM MDT 7:44 PM MDT
Civil Twilight 6:00 AM MDT 8:11 PM MDT
Nautical Twilight 5:28 AM MDT 8:42 PM MDT
Astronomical Twilight 4:55 AM MDT 9:15 PM MDT
Moon 7:20 PM MDT (8/20) 5:58 AM MDT (8/20)
Length of Visible Light 14h 10m
Length of Day
13h 17m
Full, 100% of the Moon is Illuminated
Aug 20
Full
Aug 20
Full
Aug 28
Last Quarter
Sep 5
New
Sep 12
First Quarter

Hourly Weather History & Observations

Time (MDT) Temp. Dew Point Humidity Pressure Visibility Wind Dir Wind Speed Gust Speed Precip Events Conditions
12:53 AM 57.9 °F 54.0 °F 87% 30.01 in 10.0 mi West 11.5 mph - N/A   Mostly Cloudy
1:53 AM 57.9 °F 52.0 °F 81% 29.99 in 10.0 mi West 12.7 mph - N/A   Clear
2:53 AM 57.0 °F 52.0 °F 83% 29.98 in 10.0 mi West 11.5 mph - N/A   Clear
3:53 AM 55.9 °F 52.0 °F 87% 29.96 in 10.0 mi WNW 11.5 mph - N/A   Clear
4:53 AM 57.0 °F 53.1 °F 87% 29.96 in 10.0 mi NW 9.2 mph - N/A   Clear
5:53 AM 55.0 °F 52.0 °F 89% 30.02 in 10.0 mi NW 6.9 mph - N/A   Clear
6:53 AM 57.0 °F 52.0 °F 83% 30.04 in 10.0 mi NW 9.2 mph - N/A   Clear
7:53 AM 62.1 °F 54.0 °F 75% 30.02 in 10.0 mi NNW 8.1 mph - N/A   Clear
8:53 AM 66.9 °F 52.0 °F 59% 30.02 in 10.0 mi NW 10.4 mph - N/A   Clear
9:53 AM 71.1 °F 54.0 °F 55% 30.01 in 10.0 mi West 4.6 mph - N/A   Clear
10:53 AM 73.9 °F 52.0 °F 46% 30.00 in 10.0 mi SSW 6.9 mph - N/A   Clear
11:53 AM 75.9 °F 48.0 °F 37% 29.99 in 10.0 mi Variable 3.5 mph - N/A   Partly Cloudy
12:53 PM 75.9 °F 52.0 °F 43% 29.99 in 10.0 mi SSW 4.6 mph - N/A   Partly Cloudy
1:53 PM 79.0 °F 51.1 °F 38% 29.97 in 10.0 mi South 10.4 mph - N/A   Clear
2:53 PM 81.0 °F 48.0 °F 31% 29.95 in 10.0 mi SSE 10.4 mph 17.3 mph N/A   Clear
3:53 PM 80.1 °F 48.0 °F 32% 29.95 in 10.0 mi SSW 8.1 mph - N/A   Scattered Clouds
4:53 PM 80.1 °F 48.0 °F 32% 29.93 in 10.0 mi Variable 5.8 mph - N/A   Clear
5:27 PM 66.2 °F 53.6 °F 64% 30.25 in 1.8 mi NE 16.1 mph 25.3 mph 0.03 in Rain Light Rain
5:39 PM 71.6 °F 51.8 °F 50% 30.25 in 4.0 mi SW 3.5 mph 23.0 mph 0.19 in Rain Light Rain
5:53 PM 69.1 °F 57.0 °F 65% 30.00 in 10.0 mi WSW 5.8 mph - 0.19 in   Scattered Clouds
6:18 PM 68.0 °F 53.6 °F 60% 30.24 in 10.0 mi South 19.6 mph 23.0 mph N/A   Clear
6:53 PM 68.0 °F 55.9 °F 65% 29.99 in 10.0 mi South 13.8 mph - N/A   Clear
7:53 PM 66.9 °F 57.0 °F 70% 29.99 in 10.0 mi SW 8.1 mph - N/A   Clear
8:53 PM 64.0 °F 57.0 °F 78% 30.00 in 10.0 mi SW 5.8 mph - N/A   Clear
9:53 PM 63.0 °F 55.0 °F 75% 30.02 in 10.0 mi SW 9.2 mph - N/A   Clear
10:53 PM 62.1 °F 53.1 °F 72% 30.00 in 10.0 mi SSW 10.4 mph - N/A   Clear
11:53 PM 61.0 °F 53.1 °F 75% 29.99 in 10.0 mi SW 8.1 mph - N/A   Clear